| time (UTC) | temp F | wind direction | speed MPH | gust MPH | rain 1hr in | rain 24hr in | rain mn in | humidity % | barometer mb |
| 20260505151543 | 56 | 200 | 0.0 | 0.0 | 0.00 | 0.00 | 0.00 | 83 | 1002.4 |
| 20260505124536 | 54 | 257 | 0.0 | 0.0 | 0.00 | 0.00 | 0.00 | 85 | 1002.4 |
| 20260505123036 | 54 | 257 | 0.0 | 0.0 | 0.00 | 0.00 | 0.00 | 86 | 1002.4 |
| 20260505121538 | 54 | 257 | 0.0 | 0.0 | 0.00 | 0.00 | 0.00 | 87 | 1002.4 |
| 20260505120034 | 54 | 257 | 0.0 | 0.0 | 0.00 | 0.00 | 0.00 | 87 | 1002.4 |
| 20260505114533 | 55 | 257 | 0.0 | 0.0 | 0.00 | 0.00 | 0.00 | 87 | 1002.4 |
| 20260505113035 | 55 | 257 | 0.0 | 0.0 | 0.00 | 0.00 | 0.00 | 86 | 1002.4 |
| 20260505111532 | 55 | 257 | 0.0 | 0.0 | 0.00 | 0.00 | 0.00 | 85 | 1002.4 |
| 20260505101534 | 55 | 217 | 0.0 | 0.0 | 0.00 | 0.00 | 0.00 | 83 | 1002.4 |
| 20260505100033 | 55 | 222 | 0.0 | 0.0 | 0.00 | 0.00 | 0.00 | 83 | 1002.4 |
| 20260505094528 | 55 | 223 | 0.0 | 0.0 | 0.00 | 0.00 | 0.00 | 83 | 1002.4 |
| 20260505093028 | 55 | 265 | 0.0 | 0.0 | 0.00 | 0.00 | 0.00 | 84 | 1002.4 |
| 20260505091533 | 55 | 267 | 0.0 | 3.0 | 0.00 | 0.00 | 0.00 | 84 | 1002.4 |
| 20260505090038 | 55 | 217 | 0.0 | 2.0 | 0.00 | 0.00 | 0.00 | 84 | 1002.4 |
| 20260505084526 | 55 | 213 | 0.0 | 4.0 | 0.00 | 0.00 | 0.00 | 84 | 1002.4 |
| 20260505083025 | 55 | 189 | 0.0 | 4.0 | 0.00 | 0.00 | 0.00 | 84 | 1002.4 |
| 20260505081524 | 54 | 244 | 0.0 | 0.0 | 0.00 | 0.00 | 0.00 | 85 | 1002.4 |
| 20260505080038 | 54 | 238 | 0.0 | 3.0 | 0.00 | 0.00 | 0.00 | 85 | 1002.4 |
| 20260505074527 | 54 | 234 | 0.0 | 3.0 | 0.00 | 0.00 | 0.00 | 85 | 1002.4 |
| 20260505073029 | 54 | 273 | 0.0 | 5.0 | 0.00 | 0.00 | 0.00 | 85 | 1002.4 |
| 20260505071520 | 54 | 221 | 0.0 | 6.0 | 0.00 | 0.00 | 0.00 | 85 | 1002.4 |
| 20260505070019 | 54 | 249 | 0.0 | 3.0 | 0.00 | 0.00 | 0.00 | 84 | 1002.4 |
| 20260505064520 | 54 | 273 | 1.0 | 5.0 | 0.00 | 0.00 | 0.00 | 84 | 1002.4 |
| 20260505063018 | 54 | 265 | 2.0 | 6.0 | 0.00 | 0.00 | 0.00 | 84 | 1002.4 |
| 20260505061517 | 54 | 257 | 1.0 | 7.0 | 0.00 | 0.00 | 0.00 | 84 | 1002.4 |
| 20260505060017 | 55 | 218 | 0.0 | 6.0 | 0.00 | 0.00 | 0.00 | 83 | 1002.4 |
| 20260505054516 | 55 | 248 | 0.0 | 0.0 | 0.00 | 0.00 | 0.00 | 82 | 1002.4 |
| 20260505053019 | 55 | 255 | 0.0 | 6.0 | 0.00 | 0.00 | 0.00 | 82 | 1002.4 |
| 20260505051515 | 55 | 263 | 0.0 | 6.0 | 0.00 | 0.00 | 0.00 | 82 | 1002.4 |
| 20260505041513 | 58 | 280 | 0.0 | 0.0 | 0.00 | 0.00 | 0.00 | 79 | 1002.4 |
| 20260505040015 | 58 | 280 | 0.0 | 0.0 | 0.00 | 0.00 | 0.00 | 78 | 1002.4 |
| 20260505034512 | 59 | 307 | 0.0 | 0.0 | 0.00 | 0.00 | 0.00 | 77 | 1002.4 |
| 20260505033012 | 60 | 307 | 0.0 | 0.0 | 0.00 | 0.00 | 0.00 | 75 | 1002.4 |
| 20260505031513 | 61 | 307 | 0.0 | 0.0 | 0.00 | 0.00 | 0.00 | 74 | 1002.4 |
| 20260505030011 | 62 | 307 | 0.0 | 0.0 | 0.00 | 0.00 | 0.00 | 72 | 1002.4 |
| 20260505024510 | 63 | 334 | 0.0 | 0.0 | 0.00 | 0.00 | 0.00 | 71 | 1002.4 |
| 20260505023010 | 63 | 347 | 0.0 | 0.0 | 0.00 | 0.00 | 0.00 | 72 | 1002.4 |
| 20260505021513 | 64 | 347 | 0.0 | 0.0 | 0.00 | 0.00 | 0.00 | 71 | 1002.4 |
| 20260505020016 | 65 | 347 | 0.0 | 0.0 | 0.00 | 0.00 | 0.00 | 70 | 1002.4 |
| 20260505014511 | 66 | 259 | 0.0 | 5.0 | 0.00 | 0.00 | 0.00 | 68 | 1002.4 |
| 20260505013009 | 68 | 241 | 0.0 | 6.0 | 0.00 | 0.00 | 0.00 | 65 | 1002.4 |
| 20260505011508 | 68 | 265 | 2.0 | 9.0 | 0.00 | 0.00 | 0.00 | 63 | 1002.4 |
| 20260505010008 | 69 | 265 | 4.0 | 9.0 | 0.00 | 0.00 | 0.00 | 62 | 1002.4 |
| 20260505004513 | 70 | 274 | 4.0 | 11.0 | 0.00 | 0.00 | 0.00 | 62 | 1002.4 |
| 20260505003007 | 71 | 269 | 3.0 | 9.0 | 0.00 | 0.00 | 0.00 | 60 | 1002.4 |
| 20260505001505 | 71 | 262 | 3.0 | 10.0 | 0.00 | 0.00 | 0.00 | 60 | 1002.4 |
| 20260505000008 | 72 | 257 | 3.0 | 9.0 | 0.00 | 0.00 | 0.00 | 59 | 1002.4 |
| 20260504234503 | 72 | 253 | 0.0 | 8.0 | 0.00 | 0.00 | 0.00 | 61 | 1002.4 |
| 20260504233003 | 72 | 271 | 1.0 | 7.0 | 0.00 | 0.00 | 0.00 | 59 | 1002.4 |
| 20260504231501 | 73 | 258 | 2.0 | 9.0 | 0.00 | 0.00 | 0.00 | 59 | 1002.4 |
| 20260504230003 | 74 | 277 | 1.0 | 9.0 | 0.00 | 0.00 | 0.00 | 57 | 1002.4 |
| 20260504224501 | 74 | 227 | 0.0 | 5.0 | 0.00 | 0.00 | 0.00 | 58 | 1002.4 |
| 20260504223102 | 74 | 235 | 3.0 | 9.0 | 0.00 | 0.00 | 0.00 | 57 | 1002.4 |
| 20260504221600 | 74 | 263 | 2.0 | 7.0 | 0.00 | 0.00 | 0.00 | 56 | 1002.4 |
| 20260504214605 | 73 | 213 | 6.0 | 10.0 | 0.00 | 0.00 | 0.00 | 57 | 1002.4 |
| 20260504213057 | 74 | 186 | 4.0 | 8.0 | 0.00 | 0.00 | 0.00 | 59 | 1002.4 |
| 20260504211552 | 73 | 157 | 2.0 | 8.0 | 0.00 | 0.00 | 0.00 | 62 | 1002.4 |
| 20260504204606 | 71 | 194 | 0.0 | 5.0 | 0.00 | 0.00 | 0.00 | 61 | 1002.4 |
| 20260504203101 | 71 | 197 | 2.0 | 7.0 | 0.00 | 0.00 | 0.00 | 62 | 1002.4 |
| 20260504201542 | 69 | 172 | 0.0 | 1.0 | 0.00 | 0.00 | 0.00 | 66 | 1002.4 |
| 20260504200038 | 67 | 205 | 4.0 | 7.0 | 0.00 | 0.00 | 0.00 | 67 | 1002.4 |
| 20260504194534 | 65 | 248 | 1.0 | 8.0 | 0.00 | 0.00 | 0.00 | 70 | 1002.4 |
| 20260504193031 | 64 | 169 | 0.0 | 2.0 | 0.00 | 0.00 | 0.00 | 70 | 1002.4 |
| 20260504191531 | 63 | 228 | 0.0 | 2.0 | 0.00 | 0.00 | 0.00 | 72 | 1002.4 |
| 20260504190025 | 62 | 149 | 1.0 | 6.0 | 0.00 | 0.00 | 0.00 | 74 | 1002.4 |
| 20260504184526 | 61 | 201 | 0.0 | 7.0 | 0.00 | 0.00 | 0.00 | 75 | 1002.4 |
| 20260504183023 | 60 | 239 | 0.0 | 7.0 | 0.00 | 0.00 | 0.00 | 76 | 1002.4 |
| 20260504181523 | 60 | 216 | 1.0 | 6.0 | 0.00 | 0.00 | 0.00 | 78 | 1002.4 |
| 20260504180023 | 59 | 208 | 1.0 | 7.0 | 0.00 | 0.00 | 0.00 | 79 | 1002.4 |
| 20260504174522 | 58 | 184 | 3.0 | 7.0 | 0.00 | 0.00 | 0.00 | 80 | 1002.4 |
| 20260504173022 | 58 | 163 | 1.0 | 6.0 | 0.00 | 0.00 | 0.00 | 81 | 1002.4 |
| 20260504171521 | 57 | 196 | 1.0 | 4.0 | 0.00 | 0.00 | 0.00 | 82 | 1002.4 |